Preview of NWS' New Version of Forecast
This preview is not operational and should not be used for support decisions.

Regional Weather Roundup (RWR)

Issued by National Weather Service (NWS)

                            
000
ASCA42 TJSJ 180010
RWRPR 
PUERTO RICO/U.S. VIRGIN ISLANDS HOURLY WEATHER ROUNDUP
NATIONAL WEATHER SERVICE SAN JUAN PR
800 PM AST TUE SEP 17 2019

PRZ001>002-007>008-010-180100-
PUERTO RICO
  
CITY           SKY/WX    TMP DP  RH WIND       PRES   REMARKS
SAN JUAN LMM   LGT RAIN  84  75  74 E10       29.91R HX  92           
AGUADILLA      CLEAR     81  75  83 E7        29.92R                  
CEIBA          MOCLDY    84  75  74 SE9       29.92R HX  92           
$$

VIZ001>002-180100-
U.S. VIRGIN ISLANDS
  
CITY           SKY/WX    TMP DP  RH WIND       PRES   REMARKS
CHARLOTTE AMA  CLEAR     84  73  70 E14       29.90R HX  91           
CHRISTIANSTED  PTCLDY    84  73  70 E15       29.90R HX  91           
$$

HOURLY WEATHER ROUNDUP FOR THE NEWS MEDIA
  
CITY           SKY/WX    TMP DP  RH WIND       PRES   REMARKS
ORLANDO        FAIR      84  64  50 NE8       29.93R                  
NEW YORK       FAIR      68  47  46 NE8       30.13R                  
NEWARK         FAIR      71  38  29 NE10      30.12R                  
CHICAGO        MOCLDY    72  62  71 E7        30.11S                  
HARTFORD       FAIR      56  51  84 NE3       30.15R                  
BOSTON         MOCLDY    63  51  65 E9        30.16R                  
DALLAS         PTCLDY    90  68  48 SE13      29.90R HX  94           
PHILADELPHIA   FAIR      73  45  36 NE5       30.11R                  
LOS ANGELES    MOSUNNY   76  63  64 W14       29.90S                  
WASHINGTON DC  FAIR      72  58  61 NE7       30.09R